Regional Weather Roundup
Issued by NWS

Home | Current Version | Previous Version | Graphics & Text | Print | Product List | Glossary On
Versions: 1 2 3 4 5 6 7 8 9 10 11 12 13 14 15 16 17 18 19 20 21 22 23 24 25 26 27 28 29 30 31 32 33 34 35 36 37 38 39 40 41 42 43 44 45 46 47 48 49 50
000
ASUS43 KMKX 281721
RWRWI

WISCONSIN REGIONAL WEATHER ROUNDUP
NATIONAL WEATHER SERVICE MILWAUKEE/SULLIVAN WI
1200 PM CDT FRI APR 28 2017

NOTE: "FAIR" INDICATES FEW OR NO CLOUDS BELOW 12,000 FEET WITH NO
SIGNIFICANT WEATHER AND/OR OBSTRUCTIONS TO VISIBILITY.

WIZ001-002-006>008-014>016-023>028-281800-
NORTHWEST WISCONSIN

CITY           SKY/WX    TMP DP  RH WIND       PRES   REMARKS
SUPERIOR ARPT  CLOUDY    39  26  59 W14G20    29.92R WCI  31
ASHLAND        CLOUDY    37  26  64 W15G24    29.90R WCI  28
HAYWARD        CLOUDY    38  25  59 W9        29.91R WCI  31
SIREN          MOSUNNY   40  26  57 NW8       29.94R WCI  34
CUMBERLAND     MOSUNNY   37  27  65 NW5       29.93R WCI  34
RICE LAKE      PTSUNNY   40  28  60 NW6       29.94R
CHETEK         NOT AVBL
LADYSMITH      MOSUNNY   41  29  61 W7        29.93R
EAU CLAIRE     SUNNY     43  25  49 VRB5      29.93R
MENOMONIE      CLOUDY    45  26  48 W3        29.94R
NEW RICHMOND   CLOUDY    41  25  52 N7        29.95R
OSCEOLA        CLOUDY    42  29  59 W7        29.98R
$$

WIZ003>005-009-010-017-018-281800-
NORTH CENTRAL WISCONSIN

CITY           SKY/WX    TMP DP  RH WIND       PRES   REMARKS
MANITOWISH WTR CLOUDY    32  24  70 W13G21    29.86S WCI  23
ARBOR VITAE    CLOUDY    36  26  67 NW14      29.87R WCI  27
WOODRUFF       CLOUDY    36  26  67 NW14      29.87R WCI  27
RHINELANDER    CLOUDY    35  26  69 W10       29.89R WCI  27
EAGLE RIVER    CLOUDY    33  21  62 W15       29.86R WCI  23
LAND O LAKES   CLOUDY    34  23  62 W8G17     29.87R WCI  28
PHILLIPS       CLOUDY    34  24  66 SW6       29.89R WCI  29
TOMAHAWK       CLOUDY    35  25  67 W9        29.91R WCI  28
MEDFORD        CLOUDY    37  27  66 W6        29.91R WCI  33
MERRILL        CLOUDY    38  28  68 NW9       29.91R WCI  31
$$

WIZ029-030-035-036-043>047-281800-
CENTRAL WISCONSIN

CITY           SKY/WX    TMP DP  RH WIND       PRES   REMARKS
WAUSAU         PTSUNNY   41  28  60 W13       29.91R
MOSINEE        PTSUNNY   43  30  61 W9G20     29.93R
MARSHFIELD     PTSUNNY   43  29  57 NW9       29.91R
STEVENS POINT  MOSUNNY   41  27  55 NW7       29.93R
WAUPACA        SUNNY     49  30  48 W7        29.93R
WAUTOMA        SUNNY     47  31  53 SW8       29.92S
WISC RAPIDS    MOSUNNY   45  29  53 VRB6      29.93R
CAMP DOUGLAS   PTSUNNY   46  32  57 W7        29.91F
$$

WIZ011>013-019>022-031-037>040-048>050-281800-
NORTHEAST WISCONSIN

CITY           SKY/WX    TMP DP  RH WIND       PRES   REMARKS
ANTIGO         CLOUDY    37  29  72 W13G18    29.90R WCI  29
SHAWANO        PTSUNNY   47  29  49 W7        29.91S
OCONTO         CLOUDY    41  27  56 W9        29.91
STURGEON BAY   CLOUDY    41  28  60 W10       29.92F
GREEN BAY      PTSUNNY   44  33  65 SW10      29.93R
MANITOWOC      CLOUDY    45  34  65 SW9       29.94S
APPLETON       PTSUNNY   45  28  53 SW12      29.92R
CLINTONVILLE   MOSUNNY   45  27  49 SW7       29.92R
OSHKOSH        MOSUNNY   45  32  60 VRB5      29.92S
$$

WIZ032>034-041-042-053>061-281800-
SOUTHWEST WISCONSIN

CITY           SKY/WX    TMP DP  RH WIND       PRES   REMARKS
LA CROSSE      CLOUDY    47  31  53 VRB3      29.92F
SPARTA         CLOUDY    45  32  59 N8        29.91F
VIROQUA        CLOUDY    45  32  60 N5        29.91F
BOSCOBEL       CLOUDY    49  29  46 NE3       29.93F
PRAIRIE DU CHI CLOUDY    46  30  54 CALM      29.93R
PLATTEVILLE    CLOUDY    45  35  68 E6        29.93R
$$

WIZ056-057-062-063-064-067-068-281800-
SOUTH CENTRAL WISCONSIN

CITY           SKY/WX    TMP DP  RH WIND       PRES   REMARKS
REEDSBURG      CLOUDY    46  31  56 CALM      29.92F
BARABOO/DELLS  CLOUDY    46  31  55 S3        29.92S
LONE ROCK      MOSUNNY   47  31  53 SE5       29.93F
MINERAL POINT  PTSUNNY   46  32  57 E5        29.93R
MADISON        PTSUNNY   46  32  58 VRB3      29.92F
MIDDLETON      MOSUNNY   47  32  56 CALM      29.93F
WATERTOWN      CLOUDY    45  35  67 CALM      29.93S
MONROE         CLOUDY    43  34  70 E3        29.93S
JANESVILLE     CLOUDY    46  34  61 CALM      29.94R
$$

WIZ051-052-058>065-066-070>072-281800-
SOUTHEAST WISCONSIN

CITY           SKY/WX    TMP DP  RH WIND       PRES   REMARKS
MILWAUKEE      PTSUNNY   53  37  54 W9        29.94R
WAUKESHA       MOSUNNY   48  34  57 W3        29.93F
MILWAUKEE/TIMM SUNNY     50  34  53 S5        29.94F
RACINE         PTSUNNY   47  35  63 SE9       29.96R
KENOSHA        PTSUNNY   53  38  56 S8        29.95R
FOND DU LAC    MOSUNNY   45  33  63 VRB7      29.93F
SHEBOYGAN      MOSUNNY   47  40  76 SW9       29.93F
WEST BEND      CLOUDY    48  36  61 SW6       29.93R
JUNEAU         MOSUNNY   44  33  66 CALM      29.94F
$$

LSZ147-162-281800-
LAKE SUPERIOR

STATION/POSITION TIME  TEMP    WIND        PRES    WAVE
                       AIR SEA DIR/SP/G            HT/PER
                 (UTC) (F)     (DEG/KT/KT) (MB)    (FT/S)
DEVILS ISLAND    1700   35     240/ 20/ 24 1012.1R
PORT WING        1640   36     250/ 10/ 16 1012.5R
SAXON HARBOR     1630   36     210/  9/ 14 1012.2R
$$

LMZ867-665-643>646-281800-
LAKE MICHIGAN

STATION/POSITION TIME  TEMP    WIND        PRES    WAVE
                       AIR SEA DIR/SP/G            HT/PER
                 (UTC) (F)     (DEG/KT/KT) (MB)    (FT/S)
CHAMBERS ISLAND  1640   39     220/  9/ 17 1012.5S
N MID LAKE BUOY  1650   36 37  240/ 14/ 16 1014.2R   3/ 6
NORTHPORT PIER   1640   39     240/  6/ 13 1012.9S
KEWAUNEE LAKESHO 1654   43     210/ 10/ 13 1013.3R
SHEBOYGAN LAKESH 1700   40     150/ 13/ 13 1013.8F
PORT WASHINGTON  1630   43     140/  7/  9 1014.6F
MILWAUKEE LAKESH 1700   42     120/ 10/ 11   N/A
S MID LAKE BUOY  1650   43 42  110/  2/  4 1015.3R   1
KENOSHA   LAKESH 1700   44     140/  8/ 10 1014.6
$$

TC  - TEMPERATURE IN CELSIUS
VSB - VISIBILITY IN STATUTE MILES
WCI - WIND CHILL INDEX
HX  - HEAT INDEX





USA.gov is the U.S. government's official web portal to all federal, state and local government web resources and services.